Weather History for PHJR - June, 2013

Change the Weather History Date:

Monday, June 17, 2013

  Actual Average (PHNL) Record (PHNL)
Temperature  
Mean Temperature 78 °F 80 °F  
Max Temperature 86 °F 87 °F 90 °F (1995)
Min Temperature 71 °F 74 °F 68 °F (1959)
Degree Days  
Heating Degree Days 0 0  
Month to date heating degree days 0  
Since 1 June heating degree days 0  
Since 1 July heating degree days 0  
Cooling Degree Days 14 15  
Month to date cooling degree days 252  
Year to date cooling degree days 1754  
Since 1 June cooling degree days 252  
Growing Degree Days 28 (Base 50)    
Moisture  
Dew Point 65 °F    
Average Humidity 65    
Maximum Humidity 78    
Minimum Humidity 46    
Precipitation  
Precipitation 0.00 in 0.01 in 0.19 in (2014)
Month to date precipitation 0.16  
Year to date precipitation 7.73  
Snow  
Snow 0.00 in - - ()
Month to date snowfall  
Since 1 June snowfall  
Since 1 July snowfall  
Snow Depth -    
Sea Level Pressure  
Sea Level Pressure 30.07 in    
Wind  
Wind Speed 5 mph (ENE)    
Max Wind Speed 12 mph    
Max Gust Speed 22 mph    
Visibility 10 miles    
Events      
T = Trace of Precipitation, MM = Missing Value Source: NWS Daily Summary

Daily Weather History Graph

Daily Weather History Graph

Search for Another Location

Airport or City:

Trip Planner

Search our weather history database for the weather conditions in past years. The results will help you decide how hot, cold, wet, or windy it might be!

Date:

Astronomy

Jun. 17, 2013 Rise Set
Actual Time 5:50 AM HST 7:16 PM HST
Civil Twilight 5:25 AM HST 7:41 PM HST
Nautical Twilight 4:55 AM HST 8:10 PM HST
Astronomical Twilight 4:25 AM HST 8:41 PM HST
Moon 1:40 PM HST (6/17) 12:54 AM HST (6/17)
Length of Visible Light 14h 15m
Length of Day
13h 25m
Waxing Gibbous, 62% of the Moon is Illuminated
Jun 17
Waxing Gibbous
Jun 23
Full
Jun 29
Last Quarter
Jul 7
New
Jul 15
First Quarter

Hourly Weather History & Observations

Time (HST) Temp. Heat Index Dew Point Humidity Pressure Visibility Wind Dir Wind Speed Gust Speed Precip Events Conditions
12:53 AM 73.9 °F - 64.9 °F 73% 30.05 in 10.0 mi ENE 4.6 mph - N/A   Clear
1:53 AM 73.9 °F - 64.9 °F 73% 30.04 in 10.0 mi ENE 4.6 mph - N/A   Partly Cloudy
2:04 AM 73.4 °F - 64.4 °F 73% 30.01 in 10.0 mi East 3.5 mph - N/A   Partly Cloudy
2:53 AM 72.0 °F - 64.9 °F 78% 30.03 in 10.0 mi Calm Calm - N/A   Partly Cloudy
3:53 AM 72.0 °F - 64.0 °F 76% 30.04 in 10.0 mi Calm Calm - N/A   Partly Cloudy
4:53 AM 73.0 °F - 64.9 °F 76% 30.05 in 10.0 mi Variable 3.5 mph - N/A   Mostly Cloudy
5:53 AM 72.0 °F - 64.9 °F 78% 30.07 in 10.0 mi Calm Calm - N/A   Mostly Cloudy
6:08 AM 71.6 °F - 64.4 °F 78% 30.06 in 10.0 mi Variable 3.5 mph - N/A   Mostly Cloudy
6:53 AM 73.0 °F - 64.9 °F 76% 30.09 in 10.0 mi ENE 3.5 mph - N/A   Partly Cloudy
7:53 AM 75.9 °F - 66.0 °F 71% 30.09 in 10.0 mi Variable 4.6 mph - N/A   Mostly Cloudy
8:53 AM 79.0 °F - 68.0 °F 69% 30.09 in 10.0 mi Variable 6.9 mph - N/A   Overcast
9:53 AM 82.0 °F 83.4 °F 64.0 °F 54% 30.09 in 10.0 mi ENE 8.1 mph 17.3 mph N/A   Partly Cloudy
10:53 AM 84.0 °F 85.4 °F 64.0 °F 51% 30.09 in 10.0 mi ENE 8.1 mph 20.7 mph N/A   Partly Cloudy
11:53 AM 86.0 °F 86.8 °F 63.0 °F 46% 30.08 in 10.0 mi East 11.5 mph 21.9 mph N/A   Scattered Clouds
12:53 PM 84.0 °F 85.4 °F 64.0 °F 51% 30.07 in 10.0 mi East 9.2 mph - N/A   Mostly Cloudy
1:53 PM 84.9 °F 86.6 °F 64.9 °F 51% 30.06 in 10.0 mi East 9.2 mph 16.1 mph N/A   Mostly Cloudy
2:53 PM 84.0 °F 85.8 °F 64.9 °F 53% 30.05 in 10.0 mi ENE 9.2 mph 16.1 mph N/A   Mostly Cloudy
3:53 PM 84.9 °F 85.9 °F 63.0 °F 48% 30.05 in 10.0 mi ENE 9.2 mph 18.4 mph N/A   Mostly Cloudy
4:53 PM 84.0 °F 85.4 °F 64.0 °F 51% 30.05 in 10.0 mi NE 9.2 mph 21.9 mph N/A   Clear
5:43 PM 80.6 °F 82.3 °F 64.4 °F 58% 30.04 in 10.0 mi NE 8.1 mph 17.3 mph N/A   Partly Cloudy
5:53 PM 81.0 °F 82.5 °F 64.0 °F 56% 30.06 in 10.0 mi Variable 5.8 mph - N/A   Clear
6:53 PM 79.0 °F - 64.0 °F 60% 30.08 in 10.0 mi Variable 6.9 mph - N/A   Clear
7:53 PM 77.0 °F - 64.0 °F 64% 30.10 in 10.0 mi ENE 5.8 mph - N/A   Clear
8:30 PM 77.0 °F - 64.4 °F 65% 30.09 in 10.0 mi ENE 4.6 mph - N/A   Partly Cloudy
8:53 PM 77.0 °F - 64.9 °F 66% 30.12 in 10.0 mi ENE 6.9 mph - N/A   Partly Cloudy
9:53 PM 75.9 °F - 64.9 °F 69% 30.13 in 10.0 mi ENE 5.8 mph - N/A   Clear
10:53 PM 75.9 °F - 66.0 °F 71% 30.14 in 10.0 mi ENE 6.9 mph - N/A   Mostly Cloudy
11:53 PM 75.9 °F - 66.0 °F 71% 30.12 in 10.0 mi East 4.6 mph - N/A   Overcast